Regional Weather Roundup
Issued by NWS Green Bay, WI

Home | Current Version | Previous Version | Text Only | Print | Product List | Glossary On
Versions: 1 2 3 4 5 6 7 8 9 10 11 12 13 14 15 16 17 18 19 20 21 22 23 24 25 26 27 28 29 30 31 32 33 34 35 36 37 38 39 40 41 42 43 44 45 46 47 48 49 50
000
ASUS43 KGRB 031900
RWRGRB

NORTH-CENTRAL AND NORTHEAST WISCONSIN REGIONAL WEATHER ROUNDUP
NATIONAL WEATHER SERVICE GREEN BAY WI
200 PM CDT THU SEP 03 2015

WIZ005-009-010>012-018-019-032000-
NORTH CENTRAL WISCONSIN

CITY           SKY/WX    TMP DP  RH WIND       PRES   REMARKS
IRONWOOD       SUNNY     81  57  44 E7        29.95S
MANITOWISH WTR NOT AVBL
ARBOR VITAE    NOT AVBL
EAGLE RIVER    NOT AVBL
LAND O LAKES   NOT AVBL
RHINELANDER    PTSUNNY   76  64  66 VRB5      30.00F
PHILLIPS       SUNNY     78  63  60 CALM      29.97F
ANTIGO         NOT AVBL
TOMAHAWK       NOT AVBL
MERRILL        MOSUNNY   75  66  74 CALM      29.99S
$$

WIZ013-073-032000-
NORTHEAST WISCONSIN

CITY           SKY/WX    TMP DP  RH WIND       PRES   REMARKS
IRON MOUNTAIN  PTSUNNY   77  64  64 VRB5      29.98S
MARINETTE      PTSUNNY   73  64  73 SE5       29.94F
$$

WIZ017-030-035>037-045-032000-
CENTRAL WISCONSIN

CITY           SKY/WX    TMP DP  RH WIND       PRES   REMARKS
MEDFORD        NOT AVBL
WAUSAU         CLOUDY    74  65  73 NE6       29.97S
MOSINEE        CLOUDY    73  66  78 VRB5      29.99S
MARSHFIELD     CLOUDY    73  63  70 E5        29.98S HAZE
WISC RAPIDS    PTSUNNY   79  65  62 VRB6      29.97F
STEVENS POINT  NOT AVBL
WAUPACA        NOT AVBL
SHAWANO        NOT AVBL
CLINTONVILLE   CLOUDY    72  64  78 NE7       29.96S
WAUTOMA        NOT AVBL
$$

WIZ038-039-048-051-032000-
FOX VALLEY

CITY           SKY/WX    TMP DP  RH WIND       PRES   REMARKS
NWS GREEN BAY  CLOUDY    74  68  81 N8        29.95F
APPLETON       CLOUDY   N/A N/A N/A N9          N/A
OSHKOSH        CLOUDY    75  66  73 CALM      29.95F
FOND DU LAC    CLOUDY    74  67  78 NE8       29.95F
$$

WIZ022-050-052-032000-
EAST CENTRAL WISCONSIN

CITY           SKY/WX    TMP DP  RH WIND       PRES   REMARKS
EPHRAIM        CLOUDY    68  65  89 N12       29.94S
STURGEON BAY   PTSUNNY   70  64  83 N10       29.96F
MANITOWOC      NOT AVBL
SHEBOYGAN      CLOUDY    76  67  73 NW10      29.93F
$$

LMZ563-521-522-541>543-032000-
LAKESHORE

STATION/POSITION TIME  TEMP    WIND        PRES    VSBY  WAVE
                       AIR SEA DIR/SP/G                  HT/PER
                 (UTC) (F)     (DEG/KT/KT) (MB)    (MI)  (FT/S)
SHEBOYGAN LKSHOR 1800   67      10/  5/  6 1013.7F
KEWAUNEE LKSHORE 1800   71     340/ 10/ 13 1012.8R
ALGOMA MARINA    1814          340/  8/ 11   N/A
NORTHPORT PIER   1800   68     350/  7/  9 1013.9S
N MID LAKE BUOY  1750   67 66   30/  8/ 10 1013.4R         2/ 5
S GREEN BAY BUOY 1800   67 66   10/  8/ 12 1015.6
SISTER BAY LKSHO 1811   73     340/ 14/ 16   N/A
CHAMBERS ISLAND  1800   69     350/  5/  7 1014.2S
MENOMINEE LKSHOR 1800   66      20/ 11/ 11 1013.2R
$$



USA.gov is the U.S. government's official web portal to all federal, state and local government web resources and services.